Location: Bailleul
(50.3375°N, 2.8513°E)
Time: 04:22:32
(UTC+00:00)

ATLAS 5 CENTAUR R/B - Pass Details

Date: 19 April 2021
Orbit: 516 x 1141 km, 63.3° (Epoch: 02 May)

Event Time Altitude Azimuth Distance (km) Brightness Sun altitude
Rises 20:43:14 0° 282° (WNW) 2,805 6.0 -16.3°
Reaches altitude 10° 20:45:52 10° 301° (WNW) 1,988 5.4 -16.6°
Maximum altitude 20:49:12 20° 349° (NNW) 1,548 4.3 -17.0°
Drops below altitude 10° 20:52:56 10° 36° (NE) 2,254 4.5 -17.4°
Sets 20:56:10 0° 53° (NE) 3,314 5.2 -17.8°
